TimeCST,TemperatureF,Dew PointF,Humidity,Sea Level PressureIn,VisibilityMPH,Wind Direction,Wind SpeedMPH,Gust SpeedMPH,PrecipitationIn,Events,Conditions,WindDirDegrees,DateUTC
12:53 AM,50.0,35.1,57,30.27,10.0,East,3.5,-,N/A,,Overcast,100,2013-01-27 06:53:00
1:53 AM,50.0,35.1,57,30.27,10.0,East,4.6,-,N/A,,Overcast,80,2013-01-27 07:53:00
2:00 AM,-9999,-9999,N/A,-9999,-9999.0,North,-9999.0,-,N/A,,Unknown,0,2013-01-27 08:00:00
2:53 AM,50.0,35.1,57,30.27,10.0,SE,4.6,-,N/A,,Overcast,130,2013-01-27 08:53:00
3:32 AM,50.0,35.6,58,30.26,10.0,SSE,5.8,-,N/A,,Overcast,150,2013-01-27 09:32:00
3:53 AM,48.9,37.0,64,30.27,10.0,SSE,4.6,-,0.00,,Overcast,160,2013-01-27 09:53:00
4:33 AM,48.2,35.6,62,30.26,10.0,SSE,9.2,-,N/A,,Overcast,160,2013-01-27 10:33:00
4:53 AM,48.9,35.1,59,30.26,10.0,SSE,6.9,-,N/A,,Overcast,160,2013-01-27 10:53:00
5:03 AM,48.2,35.6,62,30.26,10.0,SSE,5.8,-,N/A,,Overcast,150,2013-01-27 11:03:00
5:53 AM,48.9,36.0,61,30.27,10.0,South,6.9,-,N/A,,Overcast,170,2013-01-27 11:53:00
6:53 AM,48.9,36.0,61,30.30,10.0,South,3.5,-,N/A,,Overcast,180,2013-01-27 12:53:00
7:53 AM,50.0,36.0,59,30.30,10.0,SSE,5.8,-,N/A,,Overcast,160,2013-01-27 13:53:00
8:53 AM,51.1,36.0,56,30.31,10.0,South,8.1,-,N/A,,Overcast,170,2013-01-27 14:53:00
9:53 AM,52.0,36.0,54,30.32,10.0,South,8.1,-,N/A,,Overcast,180,2013-01-27 15:53:00
10:53 AM,54.0,37.0,53,30.31,10.0,South,8.1,-,N/A,,Overcast,190,2013-01-27 16:53:00
11:53 AM,55.9,39.0,53,30.29,10.0,South,9.2,-,N/A,,Overcast,190,2013-01-27 17:53:00
12:32 PM,57.2,41.0,55,30.26,10.0,SSW,11.5,-,N/A,,Overcast,200,2013-01-27 18:32:00
12:53 PM,59.0,42.1,53,30.25,10.0,South,12.7,-,N/A,,Mostly Cloudy,180,2013-01-27 18:53:00
1:53 PM,57.9,43.0,58,30.23,10.0,SSW,10.4,-,N/A,,Mostly Cloudy,200,2013-01-27 19:53:00
2:53 PM,59.0,44.1,58,30.22,10.0,South,8.1,-,N/A,,Overcast,180,2013-01-27 20:53:00
3:53 PM,59.0,45.0,60,30.22,10.0,South,8.1,-,N/A,,Mostly Cloudy,170,2013-01-27 21:53:00
4:53 PM,59.0,46.0,62,30.22,10.0,South,4.6,-,N/A,,Clear,170,2013-01-27 22:53:00
5:53 PM,55.9,46.0,69,30.21,10.0,SE,3.5,-,N/A,,Clear,140,2013-01-27 23:53:00
6:53 PM,57.0,46.9,69,30.22,10.0,SSE,8.1,-,N/A,,Clear,160,2013-01-28 00:53:00
7:53 PM,57.0,46.0,67,30.22,10.0,South,5.8,-,N/A,,Clear,170,2013-01-28 01:53:00
8:53 PM,55.9,45.0,67,30.22,10.0,South,6.9,-,N/A,,Scattered Clouds,170,2013-01-28 02:53:00
9:53 PM,55.0,44.1,67,30.23,10.0,South,5.8,-,N/A,,Clear,180,2013-01-28 03:53:00
10:53 PM,54.0,44.1,69,30.22,10.0,SSE,5.8,-,N/A,,Clear,160,2013-01-28 04:53:00
11:53 PM,55.9,42.1,60,30.21,10.0,South,11.5,-,N/A,,Clear,180,2013-01-28 05:53:00